Location: Newark
(52.1031°N, 9.3600°E)
Time: 23:27:47
(UTC+00:00)

Envisat - Pass Details

Date: 28 October 2019
Orbit: 764 x 766 km, 98.1° (Epoch: 14 November)

Event Time Altitude Azimuth Distance (km) Brightness Sun altitude
Rises 17:33:39 0° 175° (S) 3,222 6.2 -14.5°
Reaches altitude 10° 17:35:58 10° 179° (S) 2,300 5.5 -14.9°
Maximum altitude 17:40:59 59° 259° (W) 882 3.6 -15.7°
Drops below altitude 10° 17:46:01 10° 339° (NNW) 2,316 5.7 -16.4°
Sets 17:48:23 0° 344° (NNW) 3,246 6.5 -16.8°
